The Dalles, WA

12:30 PM PST on January 19, 2018 (GMT -0800)
Columbia Gorge Regional-The Dalles

Weather History for KDLS - May, 2013

Change the Weather History Date:

Saturday, May 18, 2013

  Actual Average Record
Temperature  
Mean Temperature 56 °F -  
Max Temperature 64 °F 74 °F 97 °F (1968)
Min Temperature 48 °F 49 °F 36 °F (1966)
Degree Days  
Heating Degree Days 9    
Growing Degree Days 6 (Base 50)    
Moisture  
Dew Point 44 °F    
Average Humidity 64    
Maximum Humidity 77    
Minimum Humidity 46    
Precipitation  
Precipitation 0.00 in - - ()
Sea Level Pressure  
Sea Level Pressure 30.13 in    
Wind  
Wind Speed 11 mph (WNW)    
Max Wind Speed 23 mph    
Max Gust Speed 31 mph    
Visibility 10 miles    
Events Rain    
Averages and records for this station are not official NWS values.
T = Trace of Precipitation, MM = Missing Value Source: NWS Daily Summary

Daily Weather History Graph

Daily Weather History Graph

Search for Another Location

Airport or City:

Trip Planner

Search our weather history database for the weather conditions in past years. The results will help you decide how hot, cold, wet, or windy it might be!

Date:

Astronomy

May. 18, 2013 Rise Set
Actual Time 5:30 AM PDT 8:32 PM PDT
Civil Twilight 4:54 AM PDT 9:08 PM PDT
Nautical Twilight 4:09 AM PDT 9:53 PM PDT
Astronomical Twilight 3:15 AM PDT 10:48 PM PDT
Moon 1:21 PM PDT (5/18) 1:46 AM PDT (5/18)
Length of Visible Light 16h 13m
Length of Day
15h 02m
First Quarter, 56% of the Moon is Illuminated
May 18
First Quarter
May 24
Full
May 31
Last Quarter
Jun 8
New
Jun 16
First Quarter

Hourly Weather History & Observations

Time (PDT) Temp. Dew Point Humidity Pressure Visibility Wind Dir Wind Speed Gust Speed Precip Events Conditions
12:53 AM 54.0 °F 44.1 °F 69% 30.06 in 10.0 mi West 8.1 mph - N/A   Mostly Cloudy
1:53 AM 52.0 °F 43.0 °F 71% 30.06 in 10.0 mi West 8.1 mph - N/A   Partly Cloudy
2:53 AM 53.1 °F 44.1 °F 71% 30.07 in 10.0 mi West 10.4 mph - N/A   Scattered Clouds
3:53 AM 50.0 °F 43.0 °F 77% 30.07 in 10.0 mi WSW 8.1 mph - N/A   Scattered Clouds
4:53 AM 50.0 °F 43.0 °F 77% 30.08 in 10.0 mi West 8.1 mph - N/A   Clear
5:53 AM 48.9 °F 42.1 °F 77% 30.09 in 10.0 mi SW 5.8 mph - N/A   Clear
6:53 AM 53.1 °F 44.1 °F 71% 30.10 in 10.0 mi NW 3.5 mph - N/A   Clear
7:53 AM 57.0 °F 44.1 °F 62% 30.10 in 10.0 mi West 9.2 mph - N/A   Overcast
8:53 AM 59.0 °F 42.1 °F 53% 30.11 in 10.0 mi WNW 12.7 mph - N/A   Mostly Cloudy
9:53 AM 59.0 °F 42.1 °F 53% 30.11 in 10.0 mi WNW 12.7 mph - N/A   Mostly Cloudy
10:53 AM 57.0 °F 45.0 °F 64% 30.12 in 10.0 mi NW 12.7 mph 20.7 mph 0.00 in Rain Light Rain
11:53 AM 55.0 °F 46.9 °F 74% 30.14 in 10.0 mi NW 10.4 mph - 0.00 in Rain Light Rain
12:53 PM 59.0 °F 45.0 °F 60% 30.14 in 10.0 mi NW 13.8 mph - 0.00 in   Overcast
1:53 PM 63.0 °F 43.0 °F 48% 30.14 in 10.0 mi WNW 18.4 mph - 0.00 in   Scattered Clouds
2:53 PM 64.0 °F 43.0 °F 46% 30.13 in 10.0 mi WNW 19.6 mph 25.3 mph N/A   Scattered Clouds
3:53 PM 63.0 °F 44.1 °F 50% 30.14 in 10.0 mi NW 18.4 mph 26.5 mph N/A   Partly Cloudy
4:53 PM 63.0 °F 44.1 °F 50% 30.14 in 10.0 mi WNW 23.0 mph 31.1 mph N/A   Clear
5:53 PM 60.1 °F 44.1 °F 55% 30.15 in 10.0 mi WNW 20.7 mph 29.9 mph N/A   Clear
6:53 PM 60.1 °F 45.0 °F 57% 30.16 in 10.0 mi WNW 18.4 mph 26.5 mph N/A   Clear
7:53 PM 57.9 °F 45.0 °F 62% 30.17 in 10.0 mi WNW 16.1 mph 26.5 mph N/A   Clear
8:53 PM 55.9 °F 45.0 °F 67% 30.20 in 10.0 mi NW 13.8 mph - N/A   Clear
9:53 PM 55.0 °F 45.0 °F 69% 30.22 in 10.0 mi NNW 9.2 mph - N/A   Clear
10:53 PM 55.0 °F 45.0 °F 69% 30.23 in 10.0 mi NW 4.6 mph - N/A   Clear
11:53 PM 54.0 °F 45.0 °F 72% 30.23 in 10.0 mi West 4.6 mph - N/A   Partly Cloudy